| time (UTC) | temp F | wind direction | speed MPH | gust MPH | rain 1hr in | rain 24hr in | rain mn in | humidity % | barometer mb |
| 20260831172539 | 92 | 74 | 1.0 | 3.0 | 0.00 | 0.00 | 0.00 | 64 | 1021.0 |
| 20260831172034 | 92 | 82 | 6.0 | 8.0 | 0.00 | 0.00 | 0.00 | 64 | 1021.0 |
| 20260831171530 | 93 | 83 | 4.0 | 6.0 | 0.00 | 0.00 | 0.00 | 61 | 1021.2 |
| 20260831171027 | 92 | 138 | 6.0 | 7.0 | 0.00 | 0.00 | 0.00 | 64 | 1021.4 |
| 20260831170523 | 92 | 96 | 1.0 | 2.0 | 0.00 | 0.00 | 0.00 | 65 | 1021.4 |
| 20260831170020 | 91 | 81 | 4.0 | 5.0 | 0.00 | 0.00 | 0.00 | 64 | 1021.2 |
| 20260831165520 | 92 | 135 | 1.0 | 1.0 | 0.00 | 0.00 | 0.00 | 63 | 1021.4 |
| 20260831165017 | 92 | 83 | 4.0 | 5.0 | 0.00 | 0.00 | 0.00 | 64 | 1021.5 |
| 20260831164513 | 91 | 83 | 3.0 | 3.0 | 0.00 | 0.00 | 0.00 | 63 | 1021.6 |
| 20260831164008 | 91 | 345 | 5.0 | 5.0 | 0.00 | 0.00 | 0.00 | 63 | 1021.7 |
| 20260831163503 | 91 | 106 | 2.0 | 2.0 | 0.00 | 0.00 | 0.00 | 66 | 1021.6 |
| 20260831163002 | 91 | 91 | 2.0 | 3.0 | 0.00 | 0.00 | 0.00 | 67 | 1021.6 |
| 20260831162457 | 91 | 78 | 3.0 | 6.0 | 0.00 | 0.00 | 0.00 | 67 | 1021.6 |
| 20260831161955 | 91 | 7 | 2.0 | 2.0 | 0.00 | 0.00 | 0.00 | 67 | 1021.7 |
| 20260831161452 | 90 | 311 | 2.0 | 2.0 | 0.00 | 0.00 | 0.00 | 69 | 1021.6 |
| 20260831160948 | 90 | 157 | 4.0 | 5.0 | 0.00 | 0.00 | 0.00 | 70 | 1021.7 |
| 20260831160447 | 91 | 175 | 0.0 | 1.0 | 0.00 | 0.00 | 0.00 | 71 | 1021.5 |
| 20260831155947 | 91 | 152 | 1.0 | 2.0 | 0.00 | 0.00 | 0.00 | 72 | 1021.7 |
| 20260831155442 | 91 | 263 | 2.0 | 3.0 | 0.00 | 0.00 | 0.00 | 73 | 1021.4 |
| 20260831154938 | 90 | 95 | 1.0 | 1.0 | 0.00 | 0.00 | 0.00 | 75 | 1021.5 |
| 20260831154434 | 90 | 12 | 3.0 | 3.0 | 0.00 | 0.00 | 0.00 | 76 | 1021.7 |
| 20260831153933 | 89 | 190 | 0.0 | 1.0 | 0.00 | 0.00 | 0.00 | 75 | 1021.7 |
| 20260831153428 | 88 | 176 | 1.0 | 1.0 | 0.00 | 0.00 | 0.00 | 78 | 1021.4 |
| 20260831152925 | 89 | 102 | 1.0 | 1.0 | 0.00 | 0.00 | 0.00 | 77 | 1021.5 |
| 20260831152420 | 88 | 65 | 1.0 | 1.0 | 0.00 | 0.00 | 0.00 | 79 | 1021.5 |
| 20260831151915 | 89 | 110 | 3.0 | 5.0 | 0.00 | 0.00 | 0.00 | 77 | 1021.5 |
| 20260831151414 | 90 | 248 | 2.0 | 2.0 | 0.00 | 0.00 | 0.00 | 74 | 1021.5 |
| 20260831150909 | 89 | 188 | 1.0 | 1.0 | 0.00 | 0.00 | 0.00 | 78 | 1021.3 |
| 20260831150359 | 88 | 92 | 0.0 | 1.0 | 0.00 | 0.00 | 0.00 | 79 | 1021.3 |
| 20260831145858 | 88 | 73 | 3.0 | 5.0 | 0.00 | 0.00 | 0.00 | 78 | 1021.4 |
| 20260831145355 | 89 | 103 | 2.0 | 2.0 | 0.00 | 0.00 | 0.00 | 79 | 1021.5 |
| 20260831144850 | 88 | 115 | 1.0 | 2.0 | 0.00 | 0.00 | 0.00 | 75 | 1021.4 |
| 20260831144347 | 90 | 173 | 3.0 | 3.0 | 0.00 | 0.00 | 0.00 | 74 | 1021.3 |
| 20260831143846 | 89 | 185 | 1.0 | 1.0 | 0.00 | 0.00 | 0.00 | 73 | 1021.3 |
| 20260831143341 | 88 | 158 | 1.0 | 1.0 | 0.00 | 0.00 | 0.00 | 77 | 1021.4 |
| 20260831142837 | 88 | 166 | 1.0 | 1.0 | 0.00 | 0.00 | 0.00 | 78 | 1021.1 |
| 20260831142332 | 88 | 252 | 2.0 | 2.0 | 0.00 | 0.00 | 0.00 | 79 | 1021.1 |
| 20260831141826 | 87 | 206 | 2.0 | 2.0 | 0.00 | 0.00 | 0.00 | 79 | 1021.2 |
| 20260831141321 | 87 | 259 | 2.0 | 2.0 | 0.00 | 0.00 | 0.00 | 80 | 1021.3 |
| 20260831140816 | 86 | 215 | 1.0 | 2.0 | 0.00 | 0.00 | 0.00 | 81 | 1021.0 |
| 20260831140311 | 85 | 217 | 2.0 | 2.0 | 0.00 | 0.00 | 0.00 | 83 | 1021.2 |
| 20260831135808 | 86 | 200 | 1.0 | 1.0 | 0.00 | 0.00 | 0.00 | 83 | 1021.1 |
| 20260831135306 | 85 | 146 | 1.0 | 1.0 | 0.00 | 0.00 | 0.00 | 83 | 1021.2 |
| 20260831134800 | 85 | 163 | 1.0 | 1.0 | 0.00 | 0.00 | 0.00 | 84 | 1021.2 |
| 20260831134256 | 84 | 150 | 0.0 | 0.0 | 0.00 | 0.00 | 0.00 | 86 | 1021.1 |
| 20260831133755 | 83 | 198 | 1.0 | 1.0 | 0.00 | 0.00 | 0.00 | 86 | 1021.1 |
| 20260831133254 | 84 | 208 | 1.0 | 2.0 | 0.00 | 0.00 | 0.00 | 85 | 1021.1 |
| 20260831132744 | 84 | 202 | 1.0 | 1.0 | 0.00 | 0.00 | 0.00 | 85 | 1021.0 |
| 20260831132240 | 83 | 189 | 0.0 | 0.0 | 0.00 | 0.00 | 0.00 | 88 | 1021.1 |
| 20260831131738 | 81 | 194 | 0.0 | 0.0 | 0.00 | 0.00 | 0.00 | 90 | 1020.7 |
| 20260831131235 | 80 | 193 | 0.0 | 0.0 | 0.00 | 0.00 | 0.00 | 91 | 1020.8 |
| 20260831130730 | 80 | 180 | 0.0 | 0.0 | 0.00 | 0.00 | 0.00 | 93 | 1020.9 |
| 20260831130225 | 79 | 184 | 0.0 | 0.0 | 0.00 | 0.00 | 0.00 | 95 | 1020.9 |
| 20260831125723 | 78 | 189 | 0.0 | 0.0 | 0.00 | 0.00 | 0.00 | 96 | 1020.8 |
| 20260831125220 | 77 | 186 | 0.0 | 0.0 | 0.00 | 0.00 | 0.00 | 98 | 1020.7 |
| 20260831124714 | 76 | 185 | 0.0 | 0.0 | 0.00 | 0.00 | 0.00 | 99 | 1020.6 |
| 20260831124211 | 76 | 190 | 0.0 | 0.0 | 0.00 | 0.00 | 0.00 | 99 | 1020.4 |
| 20260831123711 | 75 | 193 | 0.0 | 0.0 | 0.00 | 0.00 | 0.00 | 99 | 1020.6 |
| 20260831123210 | 75 | 197 | 0.0 | 0.0 | 0.00 | 0.00 | 0.00 | 99 | 1020.3 |
| 20260831122709 | 74 | 191 | 0.0 | 0.0 | 0.00 | 0.00 | 0.00 | 99 | 1020.3 |
| 20260831122206 | 74 | 186 | 0.0 | 0.0 | 0.00 | 0.00 | 0.00 | 99 | 1020.0 |
| 20260831121704 | 73 | 196 | 0.0 | 0.0 | 0.00 | 0.00 | 0.00 | 99 | 1020.4 |
| 20260831121201 | 73 | 197 | 0.0 | 0.0 | 0.00 | 0.00 | 0.00 | 99 | 1020.0 |
| 20260831120656 | 72 | 200 | 0.0 | 0.0 | 0.00 | 0.00 | 0.00 | 99 | 1020.1 |
| 20260831120151 | 73 | 207 | 0.0 | 0.0 | 0.00 | 0.00 | 0.00 | 99 | 1020.2 |
| 20260831115642 | 73 | 197 | 0.0 | 0.0 | 0.00 | 0.00 | 0.00 | 99 | 1020.1 |
| 20260831115137 | 73 | 197 | 0.0 | 0.0 | 0.00 | 0.00 | 0.00 | 99 | 1019.9 |
| 20260831114636 | 73 | 197 | 0.0 | 0.0 | 0.00 | 0.00 | 0.00 | 99 | 1019.8 |
| 20260831114131 | 73 | 191 | 0.0 | 0.0 | 0.00 | 0.00 | 0.00 | 99 | 1019.9 |
| 20260831113630 | 73 | 202 | 0.0 | 0.0 | 0.00 | 0.00 | 0.00 | 98 | 1019.9 |
| 20260831113126 | 73 | 202 | 0.0 | 0.0 | 0.00 | 0.00 | 0.00 | 98 | 1019.9 |
| 20260831112625 | 73 | 205 | 0.0 | 0.0 | 0.00 | 0.00 | 0.00 | 98 | 1019.8 |
| 20260831112120 | 73 | 200 | 0.0 | 0.0 | 0.00 | 0.00 | 0.00 | 98 | 1019.9 |
| 20260831111616 | 73 | 199 | 0.0 | 0.0 | 0.00 | 0.00 | 0.00 | 98 | 1019.9 |
| 20260831111112 | 73 | 199 | 0.0 | 0.0 | 0.00 | 0.00 | 0.00 | 98 | 1019.7 |
| 20260831110606 | 73 | 201 | 0.0 | 0.0 | 0.00 | 0.00 | 0.00 | 98 | 1019.9 |
| 20260831105600 | 74 | 201 | 0.0 | 0.0 | 0.00 | 0.00 | 0.00 | 97 | 1019.9 |
| 20260831105055 | 74 | 194 | 0.0 | 0.0 | 0.00 | 0.00 | 0.00 | 97 | 1019.7 |
| 20260831104551 | 74 | 201 | 0.0 | 0.0 | 0.00 | 0.00 | 0.00 | 97 | 1019.6 |
| 20260831104048 | 74 | 217 | 0.0 | 1.0 | 0.00 | 0.00 | 0.00 | 97 | 1019.6 |
| 20260831103543 | 74 | 239 | 1.0 | 1.0 | 0.00 | 0.00 | 0.00 | 97 | 1019.4 |
| 20260831103039 | 75 | 216 | 0.0 | 1.0 | 0.00 | 0.00 | 0.00 | 97 | 1019.5 |
| 20260831102532 | 75 | 236 | 1.0 | 1.0 | 0.00 | 0.00 | 0.00 | 97 | 1019.7 |
| 20260831102027 | 75 | 236 | 1.0 | 1.0 | 0.00 | 0.00 | 0.00 | 96 | 1019.4 |
| 20260831101522 | 75 | 226 | 1.0 | 1.0 | 0.00 | 0.00 | 0.00 | 96 | 1019.6 |
| 20260831101019 | 75 | 220 | 0.0 | 1.0 | 0.00 | 0.00 | 0.00 | 96 | 1019.5 |
| 20260831100514 | 75 | 207 | 0.0 | 0.0 | 0.00 | 0.00 | 0.00 | 95 | 1019.8 |
| 20260831100010 | 75 | 200 | 0.0 | 0.0 | 0.00 | 0.00 | 0.00 | 95 | 1019.7 |
| 20260831095508 | 75 | 198 | 0.0 | 0.0 | 0.00 | 0.00 | 0.00 | 95 | 1019.8 |
| 20260831095003 | 75 | 207 | 0.0 | 0.0 | 0.00 | 0.00 | 0.00 | 95 | 1019.7 |
| 20260831094459 | 76 | 200 | 0.0 | 0.0 | 0.00 | 0.00 | 0.00 | 94 | 1019.6 |
| 20260831093955 | 76 | 194 | 0.0 | 0.0 | 0.00 | 0.00 | 0.00 | 94 | 1019.8 |
| 20260831093450 | 76 | 203 | 0.0 | 0.0 | 0.00 | 0.00 | 0.00 | 94 | 1019.4 |
| 20260831092947 | 77 | 206 | 0.0 | 0.0 | 0.00 | 0.00 | 0.00 | 94 | 1019.4 |
| 20260831092443 | 77 | 205 | 0.0 | 0.0 | 0.00 | 0.00 | 0.00 | 93 | 1019.1 |
| 20260831091943 | 77 | 212 | 0.0 | 1.0 | 0.00 | 0.00 | 0.00 | 93 | 1019.4 |
| 20260831091438 | 77 | 200 | 0.0 | 0.0 | 0.00 | 0.00 | 0.00 | 93 | 1019.2 |
| 20260831090933 | 78 | 185 | 0.0 | 0.0 | 0.00 | 0.00 | 0.00 | 93 | 1019.0 |
| 20260831090429 | 78 | 191 | 1.0 | 1.0 | 0.00 | 0.00 | 0.00 | 93 | 1019.4 |
| 20260831085925 | 78 | 185 | 0.0 | 1.0 | 0.00 | 0.00 | 0.00 | 92 | 1019.2 |
| 20260831085420 | 78 | 188 | 0.0 | 0.0 | 0.00 | 0.00 | 0.00 | 92 | 1019.4 |
| 20260831084919 | 78 | 178 | 1.0 | 1.0 | 0.00 | 0.00 | 0.00 | 92 | 1019.5 |
| 20260831084416 | 78 | 198 | 1.0 | 1.0 | 0.00 | 0.00 | 0.00 | 92 | 1019.5 |
| 20260831083912 | 78 | 204 | 2.0 | 3.0 | 0.00 | 0.00 | 0.00 | 92 | 1019.2 |
| 20260831083407 | 78 | 188 | 1.0 | 1.0 | 0.00 | 0.00 | 0.00 | 92 | 1019.4 |
| 20260831082906 | 78 | 170 | 1.0 | 1.0 | 0.00 | 0.00 | 0.00 | 91 | 1019.2 |
| 20260831082406 | 78 | 190 | 0.0 | 0.0 | 0.00 | 0.00 | 0.00 | 91 | 1019.6 |
| 20260831081902 | 78 | 182 | 0.0 | 1.0 | 0.00 | 0.00 | 0.00 | 91 | 1019.6 |
| 20260831081357 | 78 | 183 | 0.0 | 1.0 | 0.00 | 0.00 | 0.00 | 91 | 1019.5 |
| 20260831080853 | 78 | 180 | 2.0 | 2.0 | 0.00 | 0.00 | 0.00 | 90 | 1019.6 |
| 20260831080348 | 78 | 191 | 0.0 | 1.0 | 0.00 | 0.00 | 0.00 | 90 | 1019.6 |
| 20260831075843 | 78 | 189 | 0.0 | 1.0 | 0.00 | 0.00 | 0.00 | 90 | 1019.7 |
| 20260831075338 | 79 | 191 | 0.0 | 0.0 | 0.00 | 0.00 | 0.00 | 90 | 1019.6 |
| 20260831074833 | 79 | 196 | 0.0 | 1.0 | 0.00 | 0.00 | 0.00 | 89 | 1019.7 |
| 20260831074332 | 79 | 193 | 0.0 | 0.0 | 0.00 | 0.00 | 0.00 | 88 | 1019.6 |
| 20260831073828 | 79 | 162 | 1.0 | 1.0 | 0.00 | 0.00 | 0.00 | 88 | 1019.7 |
| 20260831073327 | 79 | 163 | 1.0 | 2.0 | 0.00 | 0.00 | 0.00 | 88 | 1019.6 |
| 20260831072822 | 80 | 193 | 0.0 | 1.0 | 0.00 | 0.00 | 0.00 | 87 | 1019.6 |
| 20260831072318 | 80 | 204 | 1.0 | 1.0 | 0.00 | 0.00 | 0.00 | 87 | 1019.6 |
| 20260831071814 | 80 | 197 | 0.0 | 1.0 | 0.00 | 0.00 | 0.00 | 86 | 1019.7 |
| 20260831071313 | 80 | 153 | 1.0 | 1.0 | 0.00 | 0.00 | 0.00 | 86 | 1019.7 |
| 20260831070808 | 80 | 187 | 1.0 | 1.0 | 0.00 | 0.00 | 0.00 | 86 | 1019.6 |
| 20260831070307 | 80 | 84 | 1.0 | 2.0 | 0.00 | 0.00 | 0.00 | 86 | 1019.6 |
| 20260831065806 | 80 | 191 | 1.0 | 1.0 | 0.00 | 0.00 | 0.00 | 85 | 1019.4 |
| 20260831065306 | 80 | 188 | 0.0 | 0.0 | 0.00 | 0.00 | 0.00 | 85 | 1019.7 |
| 20260831064800 | 80 | 272 | 1.0 | 1.0 | 0.00 | 0.00 | 0.00 | 85 | 1019.6 |
| 20260831064255 | 80 | 183 | 1.0 | 1.0 | 0.00 | 0.00 | 0.00 | 85 | 1019.6 |
| 20260831063751 | 80 | 201 | 0.0 | 0.0 | 0.00 | 0.00 | 0.00 | 84 | 1019.7 |
| 20260831063246 | 81 | 202 | 1.0 | 1.0 | 0.00 | 0.00 | 0.00 | 84 | 1019.5 |
| 20260831062746 | 81 | 191 | 1.0 | 2.0 | 0.00 | 0.00 | 0.00 | 83 | 1019.6 |
| 20260831062240 | 81 | 108 | 1.0 | 1.0 | 0.00 | 0.00 | 0.00 | 83 | 1019.9 |
| 20260831061739 | 81 | 180 | 1.0 | 1.0 | 0.00 | 0.00 | 0.00 | 83 | 1019.8 |
| 20260831061234 | 81 | 154 | 0.0 | 1.0 | 0.00 | 0.00 | 0.00 | 83 | 1019.5 |
| 20260831060730 | 81 | 209 | 1.0 | 1.0 | 0.00 | 0.00 | 0.00 | 82 | 1019.8 |
| 20260831060224 | 81 | 190 | 0.0 | 1.0 | 0.00 | 0.00 | 0.00 | 82 | 1019.7 |
| 20260831055724 | 81 | 192 | 0.0 | 0.0 | 0.00 | 0.00 | 0.00 | 82 | 1019.6 |
| 20260831055224 | 81 | 187 | 3.0 | 6.0 | 0.00 | 0.00 | 0.00 | 82 | 1019.7 |
| 20260831054719 | 81 | 187 | 1.0 | 1.0 | 0.00 | 0.00 | 0.00 | 82 | 1019.5 |
| 20260831054214 | 81 | 195 | 1.0 | 1.0 | 0.00 | 0.00 | 0.00 | 82 | 1019.5 |
| 20260831053707 | 81 | 210 | 1.0 | 1.0 | 0.00 | 0.00 | 0.00 | 82 | 1019.5 |
| 20260831053206 | 81 | 197 | 1.0 | 1.0 | 0.00 | 0.00 | 0.00 | 82 | 1019.6 |
| 20260831052706 | 82 | 190 | 1.0 | 1.0 | 0.00 | 0.00 | 0.00 | 81 | 1019.6 |
| 20260831052205 | 82 | 195 | 0.0 | 0.0 | 0.00 | 0.00 | 0.00 | 81 | 1019.4 |
| 20260831051703 | 82 | 240 | 3.0 | 3.0 | 0.00 | 0.00 | 0.00 | 80 | 1019.5 |
| 20260831051202 | 82 | 193 | 0.0 | 1.0 | 0.00 | 0.00 | 0.00 | 80 | 1019.5 |
| 20260831050657 | 82 | 271 | 2.0 | 3.0 | 0.00 | 0.00 | 0.00 | 79 | 1019.4 |
| 20260831050156 | 82 | 116 | 1.0 | 1.0 | 0.00 | 0.00 | 0.00 | 79 | 1019.2 |
| 20260831045651 | 82 | 197 | 0.0 | 1.0 | 0.00 | 0.00 | 0.00 | 79 | 1019.4 |
| 20260831045145 | 82 | 221 | 2.0 | 2.0 | 0.00 | 0.00 | 0.00 | 78 | 1019.2 |
| 20260831044641 | 82 | 168 | 2.0 | 2.0 | 0.00 | 0.00 | 0.00 | 78 | 1019.4 |
| 20260831044136 | 82 | 193 | 0.0 | 0.0 | 0.00 | 0.00 | 0.00 | 77 | 1019.2 |
| 20260831043631 | 82 | 177 | 2.0 | 2.0 | 0.00 | 0.00 | 0.00 | 77 | 1019.2 |
| 20260831043127 | 82 | 190 | 3.0 | 5.0 | 0.00 | 0.00 | 0.00 | 77 | 1019.5 |
| 20260831042626 | 82 | 128 | 1.0 | 1.0 | 0.00 | 0.00 | 0.00 | 76 | 1019.1 |
| 20260831042121 | 83 | 222 | 1.0 | 1.0 | 0.00 | 0.00 | 0.00 | 76 | 1019.0 |
| 20260831041616 | 83 | 182 | 1.0 | 1.0 | 0.00 | 0.00 | 0.00 | 75 | 1019.0 |
| 20260831041115 | 83 | 172 | 2.0 | 2.0 | 0.00 | 0.00 | 0.00 | 74 | 1019.1 |
| 20260831040610 | 83 | 190 | 0.0 | 1.0 | 0.00 | 0.00 | 0.00 | 73 | 1019.1 |
| 20260831040104 | 83 | 205 | 0.0 | 1.0 | 0.00 | 0.00 | 0.00 | 73 | 1018.9 |
| 20260831035602 | 83 | 179 | 0.0 | 1.0 | 0.00 | 0.00 | 0.00 | 72 | 1018.9 |
| 20260831035056 | 83 | 196 | 3.0 | 3.0 | 0.00 | 0.00 | 0.00 | 72 | 1019.0 |
| 20260831034556 | 83 | 174 | 1.0 | 1.0 | 0.00 | 0.00 | 0.00 | 71 | 1019.0 |
| 20260831034051 | 83 | 151 | 0.0 | 1.0 | 0.00 | 0.00 | 0.00 | 71 | 1018.8 |
| 20260831033547 | 84 | 186 | 1.0 | 2.0 | 0.00 | 0.00 | 0.00 | 70 | 1018.8 |
| 20260831033042 | 84 | 214 | 0.0 | 1.0 | 0.00 | 0.00 | 0.00 | 69 | 1019.0 |
| 20260831032541 | 84 | 172 | 1.0 | 1.0 | 0.00 | 0.00 | 0.00 | 68 | 1018.9 |
| 20260831032037 | 84 | 212 | 0.0 | 1.0 | 0.00 | 0.00 | 0.00 | 68 | 1018.6 |
| 20260831031536 | 84 | 167 | 3.0 | 3.0 | 0.00 | 0.00 | 0.00 | 68 | 1018.7 |
| 20260831031037 | 84 | 178 | 1.0 | 2.0 | 0.00 | 0.00 | 0.00 | 68 | 1018.5 |
| 20260831030536 | 85 | 153 | 3.0 | 6.0 | 0.00 | 0.00 | 0.00 | 67 | 1018.4 |
| 20260831030035 | 84 | 193 | 0.0 | 0.0 | 0.00 | 0.00 | 0.00 | 67 | 1018.8 |
| 20260831025533 | 84 | 204 | 2.0 | 2.0 | 0.00 | 0.00 | 0.00 | 67 | 1018.6 |
| 20260831025029 | 85 | 166 | 0.0 | 1.0 | 0.00 | 0.00 | 0.00 | 66 | 1018.2 |
| 20260831024524 | 85 | 222 | 1.0 | 1.0 | 0.00 | 0.00 | 0.00 | 65 | 1018.3 |
| 20260831024024 | 85 | 186 | 1.0 | 2.0 | 0.00 | 0.00 | 0.00 | 64 | 1018.2 |
| 20260831023522 | 85 | 196 | 0.0 | 0.0 | 0.00 | 0.00 | 0.00 | 64 | 1018.2 |
| 20260831023016 | 86 | 197 | 1.0 | 1.0 | 0.00 | 0.00 | 0.00 | 63 | 1018.1 |
| 20260831022515 | 86 | 177 | 0.0 | 1.0 | 0.00 | 0.00 | 0.00 | 63 | 1018.2 |
| 20260831022011 | 86 | 164 | 2.0 | 2.0 | 0.00 | 0.00 | 0.00 | 63 | 1018.0 |
| 20260831021509 | 86 | 181 | 1.0 | 2.0 | 0.00 | 0.00 | 0.00 | 62 | 1017.8 |
| 20260831021006 | 86 | 185 | 2.0 | 2.0 | 0.00 | 0.00 | 0.00 | 62 | 1017.8 |
| 20260831020507 | 86 | 202 | 1.0 | 1.0 | 0.00 | 0.00 | 0.00 | 61 | 1017.5 |
| 20260831020000 | 87 | 150 | 0.0 | 0.0 | 0.00 | 0.00 | 0.00 | 62 | 1017.6 |
| 20260831015456 | 87 | 185 | 0.0 | 1.0 | 0.00 | 0.00 | 0.00 | 61 | 1017.7 |
| 20260831014951 | 87 | 208 | 0.0 | 0.0 | 0.00 | 0.00 | 0.00 | 61 | 1017.7 |
| 20260831014446 | 87 | 197 | 0.0 | 0.0 | 0.00 | 0.00 | 0.00 | 60 | 1017.7 |
| 20260831013942 | 88 | 154 | 1.0 | 1.0 | 0.00 | 0.00 | 0.00 | 59 | 1017.6 |
| 20260831013432 | 88 | 194 | 1.0 | 1.0 | 0.00 | 0.00 | 0.00 | 59 | 1017.4 |
| 20260831012931 | 88 | 109 | 2.0 | 3.0 | 0.00 | 0.00 | 0.00 | 59 | 1017.4 |
| 20260831012427 | 88 | 187 | 0.0 | 1.0 | 0.00 | 0.00 | 0.00 | 59 | 1017.4 |
| 20260831011921 | 87 | 224 | 3.0 | 3.0 | 0.00 | 0.00 | 0.00 | 60 | 1017.3 |
| 20260831011416 | 86 | 204 | 0.0 | 0.0 | 0.00 | 0.00 | 0.00 | 63 | 1017.2 |
| 20260831010912 | 87 | 209 | 0.0 | 1.0 | 0.00 | 0.00 | 0.00 | 62 | 1017.2 |
| 20260831010411 | 87 | 204 | 0.0 | 0.0 | 0.00 | 0.00 | 0.00 | 61 | 1017.1 |
| 20260831005907 | 88 | 212 | 0.0 | 1.0 | 0.00 | 0.00 | 0.00 | 60 | 1017.1 |
| 20260831005403 | 88 | 210 | 0.0 | 1.0 | 0.00 | 0.00 | 0.00 | 59 | 1017.3 |
| 20260831004857 | 89 | 205 | 0.0 | 0.0 | 0.00 | 0.00 | 0.00 | 58 | 1017.3 |
| 20260831004353 | 90 | 201 | 0.0 | 0.0 | 0.00 | 0.00 | 0.00 | 57 | 1017.1 |
| 20260831003849 | 90 | 206 | 0.0 | 0.0 | 0.00 | 0.00 | 0.00 | 56 | 1017.2 |
| 20260831003345 | 91 | 207 | 0.0 | 0.0 | 0.00 | 0.00 | 0.00 | 55 | 1017.3 |
| 20260831002844 | 91 | 183 | 0.0 | 1.0 | 0.00 | 0.00 | 0.00 | 55 | 1017.1 |
| 20260831002343 | 92 | 202 | 0.0 | 0.0 | 0.00 | 0.00 | 0.00 | 54 | 1017.1 |
| 20260831001839 | 92 | 199 | 0.0 | 0.0 | 0.00 | 0.00 | 0.00 | 53 | 1017.4 |
| 20260831001334 | 92 | 154 | 3.0 | 5.0 | 0.00 | 0.00 | 0.00 | 53 | 1017.3 |
| 20260831000832 | 92 | 149 | 1.0 | 1.0 | 0.00 | 0.00 | 0.00 | 53 | 1017.2 |
| 20260831000333 | 93 | 201 | 0.0 | 0.0 | 0.00 | 0.00 | 0.00 | 54 | 1017.3 |
| 20260830235830 | 93 | 168 | 1.0 | 1.0 | 0.00 | 0.00 | 0.00 | 52 | 1017.2 |
| 20260830235325 | 94 | 150 | 4.0 | 5.0 | 0.00 | 0.00 | 0.00 | 52 | 1017.1 |
| 20260830234820 | 94 | 161 | 2.0 | 2.0 | 0.00 | 0.00 | 0.00 | 53 | 1017.2 |
| 20260830234316 | 94 | 184 | 3.0 | 3.0 | 0.00 | 0.00 | 0.00 | 51 | 1016.9 |
| 20260830233812 | 94 | 149 | 1.0 | 1.0 | 0.00 | 0.00 | 0.00 | 51 | 1017.2 |
| 20260830233307 | 95 | 175 | 2.0 | 5.0 | 0.00 | 0.00 | 0.00 | 50 | 1017.3 |
| 20260830232802 | 95 | 184 | 4.0 | 5.0 | 0.00 | 0.00 | 0.00 | 50 | 1017.1 |
| 20260830232258 | 96 | 174 | 0.0 | 1.0 | 0.00 | 0.00 | 0.00 | 50 | 1017.1 |
| 20260830231754 | 96 | 157 | 1.0 | 1.0 | 0.00 | 0.00 | 0.00 | 49 | 1017.2 |
| 20260830231254 | 96 | 189 | 1.0 | 1.0 | 0.00 | 0.00 | 0.00 | 50 | 1016.9 |
| 20260830230749 | 96 | 207 | 1.0 | 3.0 | 0.00 | 0.00 | 0.00 | 49 | 1017.2 |
| 20260830230244 | 97 | 150 | 2.0 | 3.0 | 0.00 | 0.00 | 0.00 | 48 | 1017.3 |
| 20260830225743 | 97 | 208 | 1.0 | 1.0 | 0.00 | 0.00 | 0.00 | 46 | 1017.1 |
| 20260830225239 | 97 | 183 | 1.0 | 2.0 | 0.00 | 0.00 | 0.00 | 47 | 1017.1 |
| 20260830224738 | 97 | 158 | 3.0 | 3.0 | 0.00 | 0.00 | 0.00 | 47 | 1017.3 |
| 20260830224233 | 99 | 154 | 2.0 | 2.0 | 0.00 | 0.00 | 0.00 | 45 | 1017.1 |
| 20260830223724 | 98 | 220 | 1.0 | 1.0 | 0.00 | 0.00 | 0.00 | 46 | 1017.3 |
| 20260830223219 | 97 | 197 | 0.0 | 1.0 | 0.00 | 0.00 | 0.00 | 46 | 1017.1 |
| 20260830222714 | 97 | 206 | 1.0 | 1.0 | 0.00 | 0.00 | 0.00 | 46 | 1017.3 |
| 20260830222209 | 97 | 145 | 2.0 | 2.0 | 0.00 | 0.00 | 0.00 | 46 | 1017.1 |
| 20260830221705 | 97 | 110 | 2.0 | 3.0 | 0.00 | 0.00 | 0.00 | 45 | 1017.1 |
| 20260830221202 | 96 | 157 | 1.0 | 2.0 | 0.00 | 0.00 | 0.00 | 47 | 1017.1 |
| 20260830220657 | 97 | 187 | 0.0 | 0.0 | 0.00 | 0.00 | 0.00 | 47 | 1017.1 |
| 20260830220155 | 97 | 202 | 3.0 | 3.0 | 0.00 | 0.00 | 0.00 | 46 | 1017.1 |
| 20260830215654 | 96 | 198 | 0.0 | 1.0 | 0.00 | 0.00 | 0.00 | 47 | 1017.3 |
| 20260830215148 | 96 | 167 | 1.0 | 1.0 | 0.00 | 0.00 | 0.00 | 47 | 1017.1 |
| 20260830214644 | 96 | 199 | 1.0 | 2.0 | 0.00 | 0.00 | 0.00 | 47 | 1017.3 |
| 20260830214139 | 97 | 99 | 2.0 | 2.0 | 0.00 | 0.00 | 0.00 | 46 | 1017.2 |
| 20260830213638 | 98 | 186 | 2.0 | 3.0 | 0.00 | 0.00 | 0.00 | 45 | 1017.3 |
| 20260830213134 | 97 | 164 | 1.0 | 2.0 | 0.00 | 0.00 | 0.00 | 45 | 1017.5 |
| 20260830212630 | 96 | 89 | 3.0 | 3.0 | 0.00 | 0.00 | 0.00 | 46 | 1017.5 |
| 20260830212125 | 97 | 116 | 3.0 | 5.0 | 0.00 | 0.00 | 0.00 | 45 | 1017.6 |
| 20260830211620 | 97 | 203 | 3.0 | 3.0 | 0.00 | 0.00 | 0.00 | 45 | 1017.7 |
| 20260830211119 | 96 | 150 | 1.0 | 1.0 | 0.00 | 0.00 | 0.00 | 47 | 1017.7 |
| 20260830210615 | 99 | 46 | 7.0 | 9.0 | 0.00 | 0.00 | 0.00 | 43 | 1017.6 |
| 20260830210114 | 99 | 211 | 0.0 | 0.0 | 0.00 | 0.00 | 0.00 | 43 | 1017.9 |
| 20260830205611 | 99 | 275 | 2.0 | 2.0 | 0.00 | 0.00 | 0.00 | 43 | 1017.9 |
| 20260830205107 | 98 | 180 | 2.0 | 3.0 | 0.00 | 0.00 | 0.00 | 44 | 1018.0 |
| 20260830204606 | 98 | 344 | 4.0 | 5.0 | 0.00 | 0.00 | 0.00 | 46 | 1017.9 |
| 20260830204105 | 96 | 161 | 1.0 | 1.0 | 0.00 | 0.00 | 0.00 | 47 | 1018.3 |
| 20260830203601 | 96 | 185 | 4.0 | 5.0 | 0.00 | 0.00 | 0.00 | 46 | 1018.4 |
| 20260830203056 | 98 | 213 | 1.0 | 1.0 | 0.00 | 0.00 | 0.00 | 46 | 1018.5 |
| 20260830202555 | 97 | 129 | 2.0 | 2.0 | 0.00 | 0.00 | 0.00 | 46 | 1018.6 |
| 20260830202051 | 96 | 130 | 4.0 | 5.0 | 0.00 | 0.00 | 0.00 | 46 | 1018.3 |
| 20260830201551 | 97 | 133 | 5.0 | 7.0 | 0.00 | 0.00 | 0.00 | 46 | 1018.6 |
| 20260830201046 | 97 | 152 | 2.0 | 2.0 | 0.00 | 0.00 | 0.00 | 46 | 1018.6 |
| 20260830200541 | 98 | 98 | 4.0 | 6.0 | 0.00 | 0.00 | 0.00 | 45 | 1018.9 |
| 20260830200040 | 97 | 107 | 2.0 | 3.0 | 0.00 | 0.00 | 0.00 | 44 | 1018.9 |
| 20260830195536 | 97 | 63 | 3.0 | 5.0 | 0.00 | 0.00 | 0.00 | 45 | 1018.7 |
| 20260830195034 | 98 | 116 | 6.0 | 7.0 | 0.00 | 0.00 | 0.00 | 43 | 1019.1 |
| 20260830194533 | 97 | 82 | 3.0 | 3.0 | 0.00 | 0.00 | 0.00 | 45 | 1018.8 |
| 20260830194033 | 96 | 108 | 3.0 | 5.0 | 0.00 | 0.00 | 0.00 | 45 | 1018.9 |
| 20260830193532 | 94 | 88 | 2.0 | 2.0 | 0.00 | 0.00 | 0.00 | 51 | 1019.2 |
| 20260830193028 | 94 | 39 | 3.0 | 3.0 | 0.00 | 0.00 | 0.00 | 51 | 1019.2 |
| 20260830192524 | 93 | 106 | 1.0 | 2.0 | 0.00 | 0.00 | 0.00 | 53 | 1019.5 |
| 20260830192019 | 94 | 150 | 2.0 | 2.0 | 0.00 | 0.00 | 0.00 | 52 | 1019.7 |
| 20260830191513 | 95 | 57 | 2.0 | 2.0 | 0.00 | 0.00 | 0.00 | 51 | 1019.5 |
| 20260830191008 | 96 | 73 | 2.0 | 3.0 | 0.00 | 0.00 | 0.00 | 51 | 1019.5 |
| 20260830190504 | 95 | 177 | 2.0 | 2.0 | 0.00 | 0.00 | 0.00 | 54 | 1019.5 |
| 20260830190002 | 94 | 204 | 0.0 | 0.0 | 0.00 | 0.00 | 0.00 | 53 | 1019.8 |
| 20260830185458 | 94 | 181 | 0.0 | 0.0 | 0.00 | 0.00 | 0.00 | 53 | 1019.8 |
| 20260830184953 | 94 | 191 | 0.0 | 0.0 | 0.00 | 0.00 | 0.00 | 55 | 1019.8 |
| 20260830184452 | 94 | 189 | 1.0 | 3.0 | 0.00 | 0.00 | 0.00 | 54 | 1020.0 |
| 20260830183948 | 94 | 173 | 1.0 | 1.0 | 0.00 | 0.00 | 0.00 | 55 | 1020.1 |
| 20260830183448 | 95 | 99 | 0.0 | 1.0 | 0.00 | 0.00 | 0.00 | 55 | 1020.2 |
| 20260830182943 | 96 | 82 | 3.0 | 6.0 | 0.00 | 0.00 | 0.00 | 53 | 1020.1 |
| 20260830182438 | 95 | 111 | 4.0 | 5.0 | 0.00 | 0.00 | 0.00 | 55 | 1020.3 |
| 20260830181929 | 96 | 188 | 1.0 | 1.0 | 0.00 | 0.00 | 0.00 | 50 | 1020.5 |
| 20260830181424 | 97 | 256 | 1.0 | 2.0 | 0.00 | 0.00 | 0.00 | 49 | 1020.5 |
| 20260830180919 | 97 | 220 | 1.0 | 1.0 | 0.00 | 0.00 | 0.00 | 49 | 1020.5 |
| 20260830180418 | 96 | 167 | 3.0 | 3.0 | 0.00 | 0.00 | 0.00 | 50 | 1020.9 |
| 20260830175911 | 97 | 171 | 1.0 | 2.0 | 0.00 | 0.00 | 0.00 | 51 | 1020.8 |
| 20260830175406 | 98 | 317 | 3.0 | 3.0 | 0.00 | 0.00 | 0.00 | 50 | 1020.7 |
| 20260830174901 | 97 | 16 | 3.0 | 3.0 | 0.00 | 0.00 | 0.00 | 49 | 1020.7 |
| 20260830174357 | 96 | 192 | 3.0 | 3.0 | 0.00 | 0.00 | 0.00 | 50 | 1021.2 |
| 20260830173852 | 96 | 348 | 4.0 | 6.0 | 0.00 | 0.00 | 0.00 | 49 | 1021.0 |
| 20260830173346 | 97 | 71 | 2.0 | 3.0 | 0.00 | 0.00 | 0.00 | 49 | 1021.0 |
| 20260830172837 | 96 | 188 | 1.0 | 2.0 | 0.00 | 0.00 | 0.00 | 49 | 1021.3 |